Location: Val-d'Or
(48.1170°N, 77.7670°W)
Time: 21:33:13
(UTC-04:00)

ISS - Visible Passes

Search period start: 24 September 2022 00:00
Search period end: 04 October 2022 00:00
Orbit: 414 x 417 km, 51.6° (Epoch: 24 September)

Date Brightness Start Highest point End Pass type
(mag) Time Alt. Az. Time Alt. Az. Time Alt. Az.
24 Sep -2.9 19:57:41 10° W 20:00:56 44° N 20:03:49 13° ENE visible
24 Sep -2.0 21:34:39 10° WNW 21:36:41 32° NW 21:36:41 32° NW visible
25 Sep -3.3 20:46:00 10° WNW 20:49:17 50° N 20:49:51 44° NE visible
26 Sep -3.0 19:57:19 10° WNW 20:00:33 45° N 20:03:01 16° ENE visible
26 Sep -1.8 21:34:06 10° WNW 21:35:53 29° WNW 21:35:53 29° WNW visible
27 Sep -3.9 20:45:26 10° WNW 20:48:48 74° NNE 20:49:03 68° ENE visible
28 Sep -3.5 19:56:45 10° WNW 20:00:04 57° NNE 20:02:14 20° E visible
28 Sep -1.4 21:33:35 10° WNW 21:35:07 23° W 21:35:07 23° W visible
29 Sep -3.6 20:44:48 10° WNW 20:48:07 60° SSW 20:48:19 58° S visible
30 Sep -3.8 19:56:03 10° WNW 19:59:26 87° SSW 20:01:33 21° ESE visible
30 Sep -0.9 21:33:23 10° W 21:34:27 15° WSW 21:34:27 15° WSW visible
01 Oct -2.2 20:44:17 10° W 20:47:13 28° SW 20:47:45 26° SSW visible
02 Oct -2.8 19:55:22 10° WNW 19:58:34 42° SSW 20:01:07 15° SE visible
03 Oct -1.0 20:44:29 10° WSW 20:46:04 13° SW 20:47:28 10° SSW visible
